GW1622 Weather Reports


Display with metric or nautical units.
time (UTC)temp
F
wind
direction
speed
MPH
gust
MPH
rain 1hr
in
rain 24hr
in
rain mn
in
humidity
%
barometer
mb
20260510174016 65 0 2.0 6.0 0.00 0.00 0.00 79 1014.3
20260510173514 66 352 1.0 5.0 0.00 0.00 0.00 79 1014.3
20260510173034 65 258 1.0 5.0 0.00 0.00 0.00 80 1014.3
20260510172516 66 321 2.0 6.0 0.00 0.00 0.00 79 1014.3
20260510172015 66 66 1.0 6.0 0.00 0.00 0.00 80 1014.4
20260510171535 64 80 1.0 5.0 0.00 0.00 0.00 81 1014.4
20260510171013 64 324 1.0 5.0 0.00 0.00 0.00 82 1014.3
20260510170516 64 308 2.0 4.0 0.00 0.00 0.00 79 1014.3
20260510170032 66 45 0.0 4.0 0.00 0.00 0.00 80 1014.2
20260510165515 64 130 2.0 4.0 0.00 0.00 0.00 82 1014.2
20260510165016 64 309 1.0 5.0 0.00 0.00 0.00 81 1014.2
20260510164531 64 46 1.0 5.0 0.00 0.00 0.00 81 1014.3
20260510164015 64 29 1.0 4.0 0.00 0.00 0.00 82 1014.5
20260510163515 64 0 0.0 4.0 0.00 0.00 0.00 83 1014.3
20260510163034 63 45 2.0 4.0 0.00 0.00 0.00 83 1014.3
20260510162514 63 0 0.0 3.0 0.00 0.00 0.00 83 1014.5
20260510162016 64 0 1.0 3.0 0.00 0.00 0.00 83 1014.3
20260510161534 63 200 0.0 3.0 0.00 0.00 0.00 83 1014.3
20260510161018 63 334 0.0 3.0 0.00 0.00 0.00 84 1014.2
20260510160520 63 38 1.0 3.0 0.00 0.00 0.00 83 1014.2
20260510160037 62 0 0.0 3.0 0.00 0.00 0.00 84 1014.1
20260510155515 62 36 0.0 3.0 0.00 0.00 0.00 84 1014.0
20260510155015 62 0 0.0 3.0 0.00 0.00 0.00 85 1014.1
20260510154532 62 0 1.0 3.0 0.00 0.00 0.00 86 1014.0
20260510154017 62 22 0.0 2.0 0.00 0.00 0.00 85 1014.0
20260510153515 61 23 0.0 2.0 0.00 0.00 0.00 87 1014.1
20260510153033 61 49 0.0 2.0 0.00 0.00 0.00 87 1014.1
20260510152515 60 0 0.0 2.0 0.00 0.00 0.00 87 1014.1
20260510152014 60 0 0.0 2.0 0.00 0.00 0.00 87 1014.0
20260510151534 60 107 0.0 2.0 0.00 0.00 0.00 87 1014.0
20260510151015 60 0 0.0 2.0 0.00 0.00 0.00 87 1014.0
20260510150514 60 93 0.0 3.0 0.00 0.00 0.00 87 1013.9
20260510150034 60 0 0.0 3.0 0.00 0.00 0.00 88 1014.0
20260510145519 60 0 0.0 2.0 0.00 0.00 0.00 88 1013.9
20260510145017 60 0 0.0 2.0 0.00 0.00 0.00 88 1013.8
20260510144548 60 0 0.0 2.0 0.00 0.00 0.00 88 1014.0
20260510144015 60 0 0.0 2.0 0.00 0.00 0.00 88 1013.9
20260510143516 59 0 1.0 2.0 0.00 0.00 0.00 88 1013.8
20260510143032 60 0 0.0 2.0 0.00 0.00 0.00 88 1013.7
20260510142515 60 0 0.0 2.0 0.00 0.00 0.00 88 1013.7
20260510142015 60 124 0.0 2.0 0.00 0.00 0.00 88 1013.7
20260510141536 60 51 0.0 2.0 0.00 0.00 0.00 88 1013.7
20260510141019 60 0 0.0 2.0 0.00 0.00 0.00 88 1013.7
20260510140519 59 0 0.0 2.0 0.00 0.00 0.00 88 1013.6
20260510140035 59 0 0.0 2.0 0.00 0.00 0.00 88 1013.5
20260510135515 59 0 0.0 1.0 0.00 0.00 0.00 88 1013.5
20260510135015 59 0 0.0 0.0 0.00 0.00 0.00 88 1013.5
20260510134532 59 0 0.0 3.0 0.00 0.00 0.00 88 1013.5
20260510134016 59 0 0.0 3.0 0.00 0.00 0.00 88 1013.4
20260510133519 60 338 0.0 2.0 0.00 0.00 0.00 88 1013.4
20260510133043 59 0 0.0 2.0 0.00 0.00 0.00 88 1013.3
20260510132519 59 0 0.0 1.0 0.00 0.00 0.00 88 1013.3
20260510132015 60 0 0.0 1.0 0.00 0.00 0.00 88 1013.3
20260510131535 59 0 0.0 1.0 0.00 0.00 0.00 88 1013.3
20260510131016 59 0 0.0 1.0 0.00 0.00 0.00 88 1013.1
20260510130516 59 0 0.0 2.0 0.00 0.00 0.00 88 1013.2
20260510130034 60 0 0.0 2.0 0.00 0.00 0.00 88 1013.1
20260510125516 60 147 0.0 1.0 0.00 0.00 0.00 88 1013.2
20260510125013 59 0 0.0 2.0 0.00 0.00 0.00 88 1013.3
20260510124532 59 0 0.0 3.0 0.00 0.00 0.00 88 1013.2
20260510124017 59 143 0.0 3.0 0.00 0.00 0.00 88 1013.2
20260510123514 59 144 1.0 3.0 0.00 0.00 0.00 88 1013.2
20260510123034 60 0 0.0 1.0 0.00 0.00 0.00 88 1013.1
20260510122517 60 139 0.0 4.0 0.00 0.00 0.00 88 1013.1
20260510122015 60 0 0.0 4.0 0.00 0.00 0.00 88 1013.1
20260510121533 60 0 0.0 2.0 0.00 0.00 0.00 88 1013.1
20260510121014 60 91 0.0 2.0 0.00 0.00 0.00 88 1013.2
20260510120516 59 0 0.0 1.0 0.00 0.00 0.00 88 1013.2
20260510120031 59 0 0.0 3.0 0.00 0.00 0.00 88 1013.2
20260510115516 59 0 1.0 3.0 0.00 0.00 0.00 88 1013.1
20260510115021 60 0 0.0 2.0 0.00 0.00 0.00 88 1013.1
20260510114554 60 0 0.0 2.0 0.00 0.00 0.00 88 1013.2
20260510114015 60 0 0.0 1.0 0.00 0.00 0.00 88 1013.1
20260510113516 60 328 0.0 1.0 0.00 0.00 0.00 88 1013.1
20260510113050 60 0 0.0 0.0 0.00 0.00 0.00 88 1013.1
20260510112516 60 0 0.0 1.0 0.00 0.00 0.00 88 1013.1
20260510112014 60 0 0.0 1.0 0.00 0.00 0.00 88 1013.1
20260510111535 60 0 0.0 1.0 0.00 0.00 0.00 88 1013.1
20260510111016 60 0 0.0 2.0 0.00 0.00 0.00 88 1013.2
20260510110519 60 0 0.0 2.0 0.00 0.00 0.00 88 1013.2
20260510110038 60 0 0.0 1.0 0.00 0.00 0.00 88 1013.2
20260510105513 60 0 0.0 2.0 0.00 0.00 0.00 88 1013.3
20260510105016 60 0 0.0 2.0 0.00 0.00 0.00 88 1013.3
20260510104532 60 0 0.0 1.0 0.00 0.00 0.00 88 1013.3
20260510104015 60 0 0.0 2.0 0.00 0.00 0.00 88 1013.4
20260510103515 60 184 0.0 2.0 0.00 0.00 0.00 88 1013.2
20260510103031 60 0 0.0 1.0 0.00 0.00 0.00 88 1013.3
20260510102515 60 0 0.0 2.0 0.00 0.00 0.00 88 1013.2
20260510102016 60 0 0.0 2.0 0.00 0.00 0.00 87 1013.3
20260510101533 60 0 0.0 2.0 0.00 0.00 0.00 87 1013.3
20260510101015 60 0 0.0 2.0 0.00 0.00 0.00 87 1013.3
20260510100516 60 0 0.0 1.0 0.00 0.00 0.00 87 1013.3
20260510100047 60 0 0.0 1.0 0.00 0.00 0.00 87 1013.4
20260510095515 60 0 0.0 1.0 0.00 0.00 0.00 87 1013.3
20260510095014 60 124 0.0 1.0 0.00 0.00 0.00 87 1013.3
20260510094536 60 0 0.0 0.0 0.00 0.00 0.00 87 1013.3
20260510094016 60 0 0.0 1.0 0.00 0.00 0.00 87 1013.4
20260510093521 60 0 0.0 1.0 0.00 0.00 0.00 87 1013.4
20260510093032 60 0 0.0 2.0 0.00 0.00 0.00 87 1013.3
20260510092514 60 0 0.0 2.0 0.00 0.00 0.00 87 1013.5
20260510092016 60 0 0.0 2.0 0.00 0.00 0.00 87 1013.4
20260510091532 60 0 0.0 2.0 0.00 0.00 0.00 87 1013.5
20260510091017 60 0 0.0 2.0 0.00 0.00 0.00 87 1013.5
20260510090516 60 0 0.0 2.0 0.00 0.00 0.00 87 1013.4
20260510090033 60 0 0.0 2.0 0.00 0.00 0.00 88 1013.4
20260510085518 60 5 0.0 2.0 0.00 0.00 0.00 88 1013.5
20260510085015 60 0 0.0 1.0 0.00 0.00 0.00 87 1013.4
20260510084532 60 0 0.0 2.0 0.00 0.00 0.00 88 1013.5
20260510084015 60 0 0.0 2.0 0.00 0.00 0.00 88 1013.5
20260510083515 60 5 0.0 2.0 0.00 0.00 0.00 87 1013.5
20260510083041 60 0 0.0 1.0 0.00 0.00 0.00 87 1013.6
20260510082516 60 0 0.0 1.0 0.00 0.00 0.00 87 1013.6
20260510082015 60 0 0.0 1.0 0.00 0.00 0.00 87 1013.7
20260510081535 60 0 0.0 1.0 0.00 0.00 0.00 87 1013.7
20260510081015 60 0 0.0 3.0 0.00 0.00 0.00 87 1013.8
20260510080515 60 0 0.0 3.0 0.00 0.00 0.00 87 1013.8
20260510080034 60 360 0.0 3.0 0.00 0.00 0.00 87 1013.8
20260510075518 60 0 0.0 1.0 0.00 0.00 0.00 87 1013.8
20260510075013 60 292 0.0 1.0 0.00 0.00 0.00 88 1013.9
20260510074537 60 0 0.0 1.0 0.00 0.00 0.00 87 1013.9
20260510074016 60 0 0.0 1.0 0.00 0.00 0.00 87 1013.9
20260510073515 61 0 0.0 2.0 0.00 0.00 0.00 87 1014.0
20260510073031 60 0 0.0 2.0 0.00 0.00 0.00 88 1013.9
20260510072519 60 0 0.0 2.0 0.00 0.00 0.00 87 1014.0
20260510072016 60 0 0.0 1.0 0.00 0.00 0.00 87 1014.2
20260510071532 60 0 0.0 1.0 0.00 0.00 0.00 87 1014.0
20260510071016 60 176 0.0 1.0 0.00 0.00 0.00 87 1014.2
20260510070514 60 0 0.0 1.0 0.00 0.00 0.00 87 1014.1
20260510070038 60 0 0.0 1.0 0.00 0.00 0.00 87 1014.1
20260510065515 60 0 0.0 1.0 0.00 0.00 0.00 87 1014.1
20260510065015 60 0 0.0 3.0 0.00 0.00 0.00 87 1014.1
20260510064533 60 176 0.0 3.0 0.00 0.00 0.00 87 1014.2
20260510064016 61 0 0.0 1.0 0.00 0.00 0.00 87 1014.2
20260510063516 60 0 0.0 1.0 0.00 0.00 0.00 88 1014.2
20260510063039 60 0 0.0 2.0 0.00 0.00 0.00 88 1014.2
20260510062516 60 0 0.0 2.0 0.00 0.00 0.00 87 1014.1
20260510062017 60 0 0.0 3.0 0.00 0.00 0.00 88 1014.1
20260510061531 60 134 1.0 3.0 0.00 0.00 0.00 88 1014.2
20260510061016 60 134 0.0 2.0 0.00 0.00 0.00 87 1014.2
20260510060517 60 198 0.0 2.0 0.00 0.00 0.00 87 1014.3
20260510060038 60 0 0.0 1.0 0.00 0.00 0.00 87 1014.1
20260510055515 60 0 0.0 3.0 0.00 0.00 0.00 87 1014.2
20260510055015 60 198 1.0 3.0 0.00 0.00 0.00 87 1014.1
20260510054532 60 173 0.0 2.0 0.00 0.00 0.00 87 1014.2
20260510054016 60 0 0.0 2.0 0.00 0.00 0.00 87 1014.2
20260510053515 60 145 0.0 3.0 0.00 0.00 0.00 87 1014.3
20260510053032 60 145 0.0 3.0 0.00 0.00 0.00 87 1014.3
20260510052513 61 166 0.0 3.0 0.00 0.00 0.00 87 1014.3
20260510052017 61 0 0.0 3.0 0.00 0.00 0.00 87 1014.3
20260510051535 61 0 0.0 3.0 0.00 0.00 0.00 87 1014.2
20260510051016 61 0 0.0 2.0 0.00 0.00 0.00 87 1014.2
20260510050515 61 0 0.0 2.0 0.00 0.00 0.00 87 1014.2
20260510050035 61 146 0.0 3.0 0.00 0.00 0.00 87 1014.2
20260510045516 61 0 0.0 3.0 0.00 0.00 0.00 87 1014.1
20260510045014 60 153 0.0 2.0 0.00 0.00 0.00 87 1014.2
20260510044532 60 0 0.0 2.0 0.00 0.00 0.00 87 1014.2
20260510044020 60 153 0.0 2.0 0.00 0.00 0.00 87 1014.1
20260510043513 60 103 0.0 2.0 0.00 0.00 0.00 87 1014.0
20260510043030 60 0 0.0 1.0 0.00 0.00 0.00 87 1014.1
20260510042517 60 0 0.0 0.0 0.00 0.00 0.00 87 1014.1
20260510042014 60 0 0.0 0.0 0.00 0.00 0.00 87 1014.0
20260510041541 60 0 0.0 1.0 0.00 0.00 0.00 87 1014.0
20260510041015 60 0 0.0 1.0 0.00 0.00 0.00 87 1013.8
20260510040516 60 0 0.0 1.0 0.00 0.00 0.00 87 1013.8
20260510040036 60 0 0.0 1.0 0.00 0.00 0.00 87 1013.9
20260510035513 60 0 0.0 2.0 0.00 0.00 0.00 86 1013.8
20260510035015 61 0 0.0 2.0 0.00 0.00 0.00 86 1013.6
20260510034534 61 0 0.0 2.0 0.00 0.00 0.00 86 1013.7
20260510034014 61 0 0.0 1.0 0.00 0.00 0.00 86 1013.6
20260510033513 61 0 0.0 2.0 0.00 0.00 0.00 86 1013.6
20260510033036 61 0 0.0 2.0 0.00 0.00 0.00 86 1013.5
20260510032515 61 0 0.0 2.0 0.00 0.00 0.00 86 1013.4
20260510032016 61 0 0.0 2.0 0.00 0.00 0.00 86 1013.4
20260510031535 61 0 0.0 2.0 0.00 0.00 0.00 86 1013.3
20260510031018 61 0 0.0 2.0 0.00 0.00 0.00 86 1013.2
20260510030518 61 0 0.0 2.0 0.00 0.00 0.00 86 1013.1
20260510030038 61 0 0.0 2.0 0.00 0.00 0.00 85 1013.1
20260510025518 61 42 0.0 2.0 0.00 0.00 0.00 85 1013.0
20260510025019 61 42 0.0 2.0 0.00 0.00 0.00 85 1013.0
20260510024537 61 0 0.0 1.0 0.00 0.00 0.00 85 1013.0
20260510024017 62 0 0.0 2.0 0.00 0.00 0.00 85 1013.0
20260510023517 62 0 0.0 2.0 0.00 0.00 0.00 85 1013.0
20260510023033 62 0 0.0 2.0 0.00 0.00 0.00 85 1012.8
20260510022523 62 0 0.0 3.0 0.00 0.00 0.00 85 1012.9
20260510022019 62 92 0.0 3.0 0.00 0.00 0.00 85 1012.9
20260510021540 62 157 1.0 3.0 0.00 0.00 0.00 84 1012.9
20260510021018 62 68 0.0 3.0 0.00 0.00 0.00 85 1012.9
20260510020518 62 0 1.0 3.0 0.00 0.00 0.00 84 1012.9
20260510020038 62 0 0.0 3.0 0.00 0.00 0.00 84 1012.8
20260510015519 62 0 0.0 3.0 0.00 0.00 0.00 84 1012.9
20260510015015 62 74 0.0 3.0 0.00 0.00 0.00 84 1012.8
20260510014536 62 101 0.0 4.0 0.00 0.00 0.00 83 1012.8
20260510014016 62 0 1.0 4.0 0.00 0.00 0.00 83 1012.8
20260510013519 63 86 0.0 2.0 0.00 0.00 0.00 83 1012.8
20260510013040 63 0 0.0 3.0 0.00 0.00 0.00 83 1012.8
20260510012516 63 0 0.0 3.0 0.00 0.00 0.00 83 1012.8
20260510012018 63 93 1.0 4.0 0.00 0.00 0.00 83 1012.9
20260510011535 63 67 1.0 4.0 0.00 0.00 0.00 81 1012.9
20260510011017 64 140 0.0 3.0 0.00 0.00 0.00 81 1013.1
20260510010515 64 0 1.0 4.0 0.00 0.00 0.00 81 1012.9
20260510010034 64 0 0.0 4.0 0.00 0.00 0.00 82 1013.0
20260510005517 64 54 1.0 4.0 0.00 0.00 0.00 82 1012.9
20260510005015 64 125 1.0 4.0 0.00 0.00 0.00 80 1012.9
20260510004534 64 73 0.0 3.0 0.00 0.00 0.00 81 1012.9
20260510004019 64 104 0.0 3.0 0.00 0.00 0.00 81 1013.0
20260510003516 64 93 1.0 3.0 0.00 0.00 0.00 80 1013.0
20260510003049 65 78 1.0 5.0 0.00 0.00 0.00 79 1013.0
20260510002519 65 63 1.0 6.0 0.00 0.00 0.00 80 1013.0
20260510002016 65 111 1.0 6.0 0.00 0.00 0.00 80 1012.9
20260510001543 65 103 0.0 5.0 0.00 0.00 0.00 80 1012.7
20260510001016 65 76 1.0 5.0 0.00 0.00 0.00 79 1012.7
20260510000516 65 166 2.0 5.0 0.00 0.00 0.00 78 1012.7
20260510000043 65 126 1.0 5.0 0.00 0.00 0.00 79 1012.6
20260509235515 65 41 1.0 7.0 0.00 0.00 0.00 80 1012.7
20260509235016 65 161 2.0 7.0 0.00 0.00 0.00 79 1012.5
20260509234539 66 123 2.0 5.0 0.00 0.00 0.00 78 1012.7
20260509234013 66 76 2.0 6.0 0.00 0.00 0.00 77 1012.5
20260509233516 66 61 1.0 6.0 0.00 0.00 0.00 77 1012.6
20260509233032 67 193 1.0 4.0 0.00 0.00 0.00 76 1012.6
20260509232513 67 140 1.0 5.0 0.00 0.00 0.00 76 1012.5
20260509232016 66 53 1.0 6.0 0.00 0.00 0.00 78 1012.6
20260509231531 67 76 2.0 6.0 0.00 0.00 0.00 76 1012.5
20260509231013 67 164 2.0 6.0 0.00 0.00 0.00 75 1012.4
20260509230515 66 0 2.0 6.0 0.00 0.00 0.00 75 1012.4
20260509230034 68 105 1.0 7.0 0.00 0.00 0.00 74 1012.5
20260509225516 67 314 1.0 7.0 0.00 0.00 0.00 77 1012.7
20260509225016 66 167 2.0 7.0 0.00 0.00 0.00 75 1012.6
20260509224533 67 142 1.0 7.0 0.00 0.00 0.00 75 1012.7
20260509224015 66 96 1.0 7.0 0.00 0.00 0.00 76 1012.9
20260509223516 66 95 1.0 8.0 0.00 0.00 0.00 77 1013.0
20260509223030 66 267 2.0 8.0 0.00 0.00 0.00 76 1013.1
20260509222514 68 61 1.0 7.0 0.00 0.00 0.00 75 1013.2
20260509222017 67 69 2.0 7.0 0.00 0.00 0.00 73 1013.2
20260509221530 67 177 1.0 8.0 0.00 0.00 0.00 76 1013.2
20260509221015 67 76 2.0 8.0 0.00 0.00 0.00 76 1013.3
20260509220516 66 338 3.0 8.0 0.00 0.00 0.00 75 1013.4
20260509220034 66 92 3.0 8.0 0.00 0.00 0.00 75 1013.3
20260509215516 68 136 1.0 5.0 0.00 0.00 0.00 73 1013.3
20260509215014 69 45 1.0 7.0 0.00 0.00 0.00 72 1013.3
20260509214538 67 108 2.0 7.0 0.00 0.00 0.00 74 1013.2
20260509214015 67 0 2.0 7.0 0.00 0.00 0.00 76 1013.3
20260509213515 66 118 3.0 9.0 0.00 0.00 0.00 74 1013.5
20260509213040 69 70 2.0 9.0 0.00 0.00 0.00 72 1013.6
20260509212513 69 69 3.0 9.0 0.00 0.00 0.00 71 1013.6
20260509212018 68 51 2.0 6.0 0.00 0.00 0.00 73 1013.7
20260509211532 69 36 2.0 9.0 0.00 0.00 0.00 73 1013.7
20260509211013 67 39 2.0 9.0 0.00 0.00 0.00 75 1013.8
20260509210512 68 61 1.0 6.0 0.00 0.00 0.00 73 1013.8
20260509210034 68 40 2.0 5.0 0.00 0.00 0.00 73 1013.7
20260509205516 68 99 1.0 6.0 0.00 0.00 0.00 73 1013.8
20260509205014 69 43 2.0 6.0 0.00 0.00 0.00 71 1013.6
20260509204541 69 77 1.0 6.0 0.00 0.00 0.00 71 1013.8
20260509204016 69 113 1.0 6.0 0.00 0.00 0.00 70 1013.8
20260509203516 71 103 1.0 6.0 0.00 0.00 0.00 70 1013.9
20260509203036 70 96 2.0 8.0 0.00 0.00 0.00 70 1013.9
20260509202513 71 174 2.0 10.0 0.00 0.00 0.00 70 1013.9
20260509202014 70 13 1.0 10.0 0.00 0.00 0.00 70 1014.0
20260509201531 69 69 2.0 9.0 0.00 0.00 0.00 70 1014.0
20260509201013 68 57 2.0 10.0 0.00 0.00 0.00 74 1014.0
20260509200518 69 89 2.0 10.0 0.00 0.00 0.00 73 1014.1
20260509200039 68 52 2.0 10.0 0.00 0.00 0.00 74 1014.0
20260509195517 69 84 2.0 6.0 0.00 0.00 0.00 72 1013.9
20260509195019 69 90 2.0 5.0 0.00 0.00 0.00 73 1013.9
20260509194540 68 141 2.0 6.0 0.00 0.00 0.00 74 1013.9
20260509194014 68 103 2.0 6.0 0.00 0.00 0.00 74 1013.8
20260509193514 68 119 2.0 7.0 0.00 0.00 0.00 74 1013.9
20260509193041 68 120 2.0 7.0 0.00 0.00 0.00 73 1013.9
20260509192516 68 46 2.0 5.0 0.00 0.00 0.00 74 1013.8
20260509192018 68 94 2.0 6.0 0.00 0.00 0.00 74 1013.9
20260509191532 68 55 2.0 7.0 0.00 0.00 0.00 74 1013.9
20260509191015 67 87 2.0 7.0 0.00 0.00 0.00 76 1014.0
20260509190513 68 66 3.0 10.0 0.00 0.00 0.00 75 1013.9
20260509190030 68 65 2.0 10.0 0.00 0.00 0.00 75 1013.9
20260509185515 67 95 3.0 10.0 0.00 0.00 0.00 76 1013.9
20260509185018 68 86 2.0 8.0 0.00 0.00 0.00 76 1013.9
20260509184536 67 67 2.0 8.0 0.00 0.00 0.00 77 1013.8
20260509184013 67 87 3.0 8.0 0.00 0.00 0.00 76 1013.9
20260509183513 67 100 3.0 8.0 0.00 0.00 0.00 76 1014.0
20260509183035 66 58 2.0 8.0 0.00 0.00 0.00 78 1014.1
20260509182513 67 148 2.0 9.0 0.00 0.00 0.00 77 1014.2
20260509182014 66 46 2.0 9.0 0.00 0.00 0.00 80 1014.3
20260509181535 67 71 1.0 7.0 0.00 0.00 0.00 78 1014.2
20260509181015 67 107 1.0 5.0 0.00 0.00 0.00 77 1014.3
20260509180515 68 328 1.0 7.0 0.00 0.00 0.00 78 1014.3
20260509180032 67 0 1.0 7.0 0.00 0.00 0.00 78 1014.3
20260509175515 66 132 3.0 7.0 0.00 0.00 0.00 77 1014.4
20260509175016 67 78 2.0 6.0 0.00 0.00 0.00 81 1014.3
20260509174532 68 63 1.0 4.0 0.00 0.00 0.00 77 1014.3